Location: Gleizolles
(44.4833°N, 6.7667°E)
Time: 23:43:40
(UTC+00:00)

S-56A Canister/Altair - Pass Details

Date: 26 June 2024
Orbit: 638 x 2488 km, 38.9° (Epoch: 24 July)

Event Time Altitude Azimuth Distance (km) Brightness Sun altitude
Rises 21:09:06 0° 259° (W) 4,107 11.6 -14.3°
Reaches altitude 10° 21:11:32 10° 256° (WSW) 3,351 11.0 -14.6°
Maximum altitude 21:20:12 66° 177° (S) 1,885 9.2 -15.4°
Drops below altitude 10° 21:33:03 10° 100° (E) 4,823 11.2 -16.6°
Sets 21:37:17 0° 98° (E) 5,991 11.7 -17.0°
